Location: Izdebno
(52.6670°N, 16.2170°E)
Time: 23:42:38
(UTC+02:00)

S-56A Canister/Altair - Pass Details

Date: 23 April 2024
Orbit: 638 x 2488 km, 38.9° (Epoch: 22 May)

Event Time Altitude Azimuth Distance (km) Brightness Sun altitude
Rises 19:18:47 0° 246° (WSW) 3,312 11.8 6.4°
Reaches altitude 10° 19:21:21 10° 233° (SW) 2,559 10.9 6.0°
Maximum altitude 19:26:17 26° 178° (S) 2,015 9.6 5.3°
Drops below altitude 10° 19:32:54 10° 127° (SE) 3,513 10.3 4.3°
Sets 19:37:06 0° 117° (ESE) 4,843 10.9 3.7°
